McGrath, AK

7:21 AM AKST on December 07, 2016 (GMT -0900)
McGrath

Weather History for PAMC - January, 2013

Change the Weather History Date:

Sunday, January 13, 2013

  Actual Average Record
Temperature  
Mean Temperature 33 °F -7 °F  
Max Temperature 35 °F - 39 °F (1993)
Min Temperature 31 °F -16 °F -56 °F (1991)
Degree Days  
Heating Degree Days 32 72  
Month to date heating degree days 681 935  
Since 1 July heating degree days 7446 7181  
Cooling Degree Days 0    
Month to date cooling degree days 0  
Year to date cooling degree days 0  
Moisture  
Dew Point 31 °F    
Average Humidity 0    
Maximum Humidity 0    
Minimum Humidity 0    
Precipitation  
Precipitation 0.30 in 0.03 in 0.76 in (1947)
Month to date precipitation 1.67 0.50  
Year to date precipitation 1.67 0.50  
Snow  
Snow 1.00 in 0.50 in 5.50 in (1947)
Month to date snowfall 14.1 7.1  
Since 1 July snowfall 47.8 58.3  
Snow Depth 36.00 in    
Sea Level Pressure  
Sea Level Pressure 29.55 in    
Wind  
Wind Speed 2 mph (ESE)    
Max Wind Speed 5 mph    
Max Gust Speed 7 mph    
Visibility 8 miles    
Events Rain , Snow    
T = Trace of Precipitation, MM = Missing Value Source: NWS Daily Summary

Daily Weather History Graph

Daily Weather History Graph

Search for Another Location

Airport or City:

Trip Planner

Search our weather history database for the weather conditions in past years. The results will help you decide how hot, cold, wet, or windy it might be!

Date:

Astronomy

Jan. 13, 2013 Rise Set
Actual Time 10:39 AM AKST 4:24 PM AKST
Civil Twilight 9:36 AM AKST 5:27 PM AKST
Nautical Twilight 8:35 AM AKST 6:28 PM AKST
Astronomical Twilight 7:39 AM AKST 7:23 PM AKST
Moon 10:35 AM AKST (1/13) 8:32 PM AKST (1/13)
Length of Visible Light 7h 50m
Length of Day
5h 44m
Waxing Crescent, 6% of the Moon is Illuminated
Jan 13
Waxing Crescent
Jan 18
First Quarter
Jan 26
Full
Feb 3
Last Quarter
Feb 9
New

Hourly Weather History & Observations

Time (AKST) Temp. Windchill Dew Point Humidity Pressure Visibility Wind Dir Wind Speed Gust Speed Precip Events Conditions
12:04 AM 30.2 °F 25.4 °F 28.4 °F 93% 29.53 in 6.0 mi SE 4.6 mph - 0.01 in Rain Light Freezing Rain
12:53 AM 32.0 °F 27.5 °F 30.0 °F 92% 29.56 in 10.0 mi SE 4.6 mph - 0.04 in Rain Light Rain
1:31 AM 32.0 °F - 30.2 °F 93% 29.55 in 10.0 mi Calm Calm - 0.02 in Rain Light Rain
1:41 AM 32.0 °F - 30.2 °F 93% 29.56 in 9.0 mi Calm Calm - 0.03 in Rain Light Rain
1:53 AM 32.0 °F - 30.9 °F 96% 29.59 in 10.0 mi Calm Calm - 0.03 in Rain Light Rain
2:22 AM 32.0 °F - 30.2 °F 93% 29.57 in 2.0 mi Calm Calm - 0.00 in Rain Light Rain
2:53 AM 33.1 °F - 30.9 °F 92% 29.59 in 2.5 mi Calm Calm - 0.03 in Rain Light Rain
3:03 AM 32.0 °F - 30.2 °F 93% 29.57 in 4.0 mi Calm Calm - 0.01 in Rain Light Rain
3:53 AM 33.1 °F 28.7 °F 32.0 °F 96% 29.58 in 10.0 mi East 4.6 mph - 0.01 in Rain Light Rain
4:20 AM 33.8 °F 30.8 °F 32.0 °F 93% 29.57 in 10.0 mi WNW 3.5 mph - 0.00 in   Mostly Cloudy
4:33 AM 33.8 °F 30.8 °F 32.0 °F 93% 29.56 in 10.0 mi WNW 3.5 mph - 0.00 in   Mostly Cloudy
4:41 AM 33.8 °F - 32.0 °F 93% 29.56 in 10.0 mi Calm Calm - 0.00 in Rain Light Rain
4:53 AM 33.1 °F - 32.0 °F 96% 29.58 in 10.0 mi Calm Calm - 0.00 in   Scattered Clouds
5:53 AM 33.1 °F 26.1 °F 32.0 °F 96% 29.57 in 10.0 mi SE 8.1 mph - 0.00 in Rain Light Rain
6:00 AM 33.8 °F 29.6 °F 32.0 °F 93% 29.55 in 10.0 mi WNW 4.6 mph - 0.00 in Rain Light Rain
6:18 AM 33.8 °F 29.6 °F 30.2 °F 87% 29.55 in 10.0 mi WNW 4.6 mph - 0.00 in   Overcast
6:53 AM 33.1 °F - 32.0 °F 96% 29.57 in 10.0 mi Calm Calm - 0.00 in   Overcast
7:53 AM 33.1 °F 28.7 °F 32.0 °F 96% 29.57 in 10.0 mi SE 4.6 mph - N/A   Mostly Cloudy
8:53 AM 32.0 °F 27.5 °F 30.9 °F 96% 29.58 in 10.0 mi SE 4.6 mph - N/A   Overcast
9:53 AM 32.0 °F 27.5 °F 30.9 °F 96% 29.59 in 10.0 mi NE 4.6 mph - N/A   Overcast
10:53 AM 33.1 °F 30.0 °F 30.9 °F 92% 29.60 in 10.0 mi North 3.5 mph - N/A   Overcast
11:53 AM 33.1 °F 28.7 °F 30.9 °F 92% 29.60 in 10.0 mi Variable 4.6 mph - N/A   Mostly Cloudy
12:53 PM 34.0 °F - 30.9 °F 89% 29.60 in 10.0 mi Calm Calm - N/A   Mostly Cloudy
1:53 PM 33.1 °F 30.0 °F 30.9 °F 92% 29.58 in 10.0 mi ENE 3.5 mph - N/A   Mostly Cloudy
2:53 PM 32.0 °F 28.7 °F 30.0 °F 92% 29.57 in 10.0 mi SSE 3.5 mph - N/A   Mostly Cloudy
3:53 PM 32.0 °F 24.8 °F 28.9 °F 88% 29.56 in 10.0 mi SE 8.1 mph - N/A   Overcast
4:53 PM 32.0 °F 27.5 °F 28.9 °F 88% 29.55 in 10.0 mi Variable 4.6 mph - N/A   Overcast
5:53 PM 33.1 °F - 30.0 °F 89% 29.55 in 10.0 mi Calm Calm - 0.01 in Rain Light Rain
6:13 PM 32.0 °F - 30.2 °F 93% 29.53 in 7.0 mi Calm Calm - 0.01 in Rain Light Freezing Rain
6:44 PM 32.0 °F - 30.2 °F 93% 29.52 in 6.0 mi Calm Calm - 0.02 in Rain Light Freezing Rain
6:53 PM 32.0 °F - 30.9 °F 96% 29.53 in 6.0 mi Calm Calm - 0.03 in Snow Light Snow
7:53 PM 32.0 °F - 30.9 °F 96% 29.52 in 5.0 mi Calm Calm - 0.05 in Snow Light Snow
8:50 PM 32.0 °F - 30.2 °F 93% 29.49 in 2.5 mi Calm Calm - 0.05 in Snow Light Snow
8:53 PM 32.0 °F - 30.9 °F 96% 29.51 in 2.5 mi Calm Calm - 0.05 in Snow Light Snow
9:35 PM 32.0 °F 28.7 °F 32.0 °F 100% 29.46 in 2.5 mi WNW 3.5 mph - 0.02 in Snow Light Snow
9:45 PM 32.0 °F - 32.0 °F 100% 29.46 in 3.0 mi Calm Calm - 0.02 in Snow Light Snow
9:53 PM 32.0 °F - 32.0 °F 100% 29.47 in 3.0 mi Calm Calm - 0.03 in Snow Light Snow
10:53 PM 33.1 °F - 32.0 °F 96% 29.46 in 6.0 mi Calm Calm - 0.01 in Snow Light Snow
11:03 PM 33.8 °F - 32.0 °F 93% 29.43 in 7.0 mi Calm Calm - 0.00 in Snow Light Snow
11:53 PM 32.0 °F - 30.9 °F 96% 29.42 in 3.0 mi Calm Calm - 0.01 in Snow Light Snow